Terminal Aerodrome Forecast
Issued by NWS

Home | Current Version | Previous Version | Text Only | Print | Product List | Glossary On
Versions: 1 2 3 4 5 6 7 8 9 10 11 12 13
000
FTUS44 KLZK 170500 RRA
TAFHOT
TAF
KHOT 170550Z 1706/1806 09004KT P6SM FEW250
     FM171800 15008KT P6SM FEW050 SCT100 BKN250
     FM180000 14004KT P6SM SCT050 BKN100=

USA.gov is the U.S. government's official web portal to all federal, state and local government web resources and services.